SO5BO-13 Weather Reports


Display with metric or nautical units.
time (UTC)temp
F
wind
direction
speed
MPH
gust
MPH
rain 1hr
in
rain 24hr
in
rain mn
in
humidity
%
barometer
mb
20260905215242 57 277 6.0 11.0 0.00 0.00 0.00 83 1016.1
20260905214742 57 279 3.0 8.0 0.00 0.00 0.00 83 1016.1
20260905214242 57 277 9.0 13.0 0.00 0.00 0.00 83 1016.1
20260905213742 57 270 4.0 10.0 0.00 0.00 0.00 82 1016.0
20260905213242 57 274 6.0 11.0 0.00 0.00 0.00 82 1016.1
20260905212742 58 274 10.0 15.0 0.00 0.00 0.00 82 1016.1
20260905212242 58 287 7.0 14.0 0.00 0.00 0.00 81 1015.9
20260905211742 58 273 9.0 15.0 0.00 0.00 0.00 81 1015.9
20260905211242 58 207 6.0 11.0 0.00 0.00 0.00 81 1015.9
20260905210742 58 258 8.0 14.0 0.00 0.00 0.00 80 1015.9
20260905210242 58 290 9.0 11.0 0.00 0.00 0.00 80 1015.7
20260905205742 59 242 8.0 11.0 0.00 0.00 0.00 80 1015.8
20260905205242 59 246 7.0 10.0 0.00 0.00 0.00 79 1015.7
20260905204742 59 289 6.0 18.0 0.00 0.00 0.00 79 1015.7
20260905204242 59 268 6.0 14.0 0.00 0.00 0.00 79 1015.7
20260905203742 59 298 7.0 10.0 0.00 0.00 0.00 79 1015.5
20260905203241 60 277 9.0 11.0 0.00 0.00 0.00 78 1015.4
20260905202741 60 276 11.0 18.0 0.00 0.00 0.00 78 1015.4
20260905202242 60 270 8.0 13.0 0.00 0.00 0.00 78 1015.3
20260905201742 60 287 10.0 13.0 0.00 0.00 0.00 78 1015.3
20260905201242 60 287 10.0 13.0 0.00 0.00 0.00 78 1015.2
20260905200742 60 292 9.0 14.0 0.00 0.00 0.00 78 1015.3
20260905200242 60 288 9.0 11.0 0.00 0.00 0.00 78 1015.1
20260905195742 60 274 13.0 17.0 0.00 0.00 0.00 77 1015.3
20260905195242 60 273 5.0 10.0 0.00 0.00 0.00 77 1015.4
20260905194742 60 311 5.0 13.0 0.00 0.00 0.00 77 1015.2
20260905194242 60 294 11.0 17.0 0.00 0.00 0.00 77 1015.2
20260905193742 60 274 6.0 9.0 0.00 0.00 0.00 77 1015.2
20260905193242 60 255 6.0 14.0 0.00 0.00 0.00 77 1015.1
20260905192742 60 326 9.0 14.0 0.00 0.00 0.00 77 1015.3
20260905192242 60 279 7.0 13.0 0.00 0.00 0.00 77 1015.2
20260905191742 60 284 3.0 10.0 0.00 0.00 0.00 77 1015.1
20260905191242 60 282 8.0 11.0 0.00 0.00 0.00 77 1015.2
20260905190742 60 274 5.0 8.0 0.00 0.00 0.00 77 1015.1
20260905190242 60 283 2.0 17.0 0.00 0.00 0.00 78 1015.3
20260905185742 59 243 4.0 7.0 0.00 0.00 0.00 78 1015.1
20260905185242 59 143 2.0 7.0 0.00 0.00 0.00 78 1015.1
20260905184742 59 283 2.0 3.0 0.00 0.00 0.00 79 1015.0
20260905184242 60 323 3.0 6.0 0.00 0.00 0.00 79 1015.2
20260905183742 60 250 2.0 6.0 0.00 0.00 0.00 79 1015.1
20260905183242 60 268 3.0 4.0 0.00 0.00 0.00 79 1015.2
20260905182742 60 220 2.0 3.0 0.00 0.00 0.00 78 1015.3
20260905182242 60 253 1.0 4.0 0.00 0.00 0.00 78 1015.5
20260905181742 60 299 2.0 4.0 0.00 0.00 0.00 78 1015.5
20260905181242 60 276 5.0 9.0 0.00 0.00 0.00 77 1015.4
20260905180742 60 285 1.0 2.0 0.00 0.00 0.00 77 1015.3
20260905180242 60 229 2.0 3.0 0.00 0.00 0.00 76 1015.3
20260905175742 60 218 4.0 7.0 0.00 0.00 0.00 76 1015.5
20260905175242 60 211 1.0 3.0 0.00 0.00 0.00 75 1015.2
20260905174742 61 290 0.0 2.0 0.00 0.00 0.00 75 1015.2
20260905174242 61 272 1.0 2.0 0.00 0.00 0.00 74 1015.3
20260905173742 61 212 2.0 6.0 0.00 0.00 0.00 74 1015.3
20260905173242 61 251 2.0 6.0 0.00 0.00 0.00 74 1015.0
20260905172742 61 287 3.0 8.0 0.00 0.00 0.00 73 1015.1
20260905172242 61 281 3.0 6.0 0.00 0.00 0.00 73 1015.1
20260905171742 61 236 4.0 6.0 0.00 0.00 0.00 73 1015.0
20260905171242 61 313 3.0 6.0 0.00 0.00 0.00 72 1014.8
20260905170742 61 243 1.0 6.0 0.00 0.00 0.00 72 1014.9
20260905170242 62 309 5.0 8.0 0.00 0.00 0.00 72 1014.9
20260905165742 62 299 6.0 8.0 0.00 0.00 0.00 71 1015.1
20260905165243 62 276 3.0 10.0 0.00 0.00 0.00 71 1015.2
20260905164742 62 301 3.0 8.0 0.00 0.00 0.00 71 1015.0
20260905164242 62 283 1.0 7.0 0.00 0.00 0.00 71 1015.1
20260905163742 62 320 1.0 3.0 0.00 0.00 0.00 71 1014.9
20260905163242 62 218 2.0 9.0 0.00 0.00 0.00 70 1014.9
20260905162742 62 234 4.0 7.0 0.00 0.00 0.00 70 1014.8
20260905162242 62 288 6.0 9.0 0.00 0.00 0.00 70 1014.9
20260905161742 62 206 3.0 7.0 0.00 0.00 0.00 70 1014.8
20260905161242 62 294 6.0 9.0 0.00 0.00 0.00 70 1014.7
20260905160742 62 307 5.0 10.0 0.00 0.00 0.00 70 1014.7
20260905160242 62 276 8.0 10.0 0.00 0.00 0.00 70 1014.6
20260905155742 62 252 4.0 8.0 0.00 0.00 0.00 70 1014.6
20260905155242 62 264 3.0 6.0 0.00 0.00 0.00 71 1014.6
20260905154742 62 283 7.0 13.0 0.00 0.00 0.00 71 1014.7
20260905154242 62 288 5.0 8.0 0.00 0.00 0.00 70 1014.7
20260905153742 62 287 7.0 11.0 0.00 0.00 0.00 70 1014.6
20260905153242 62 287 3.0 9.0 0.00 0.00 0.00 69 1014.7
20260905152742 62 291 5.0 8.0 0.00 0.00 0.00 68 1014.8
20260905152242 63 288 4.0 14.0 0.00 0.00 0.00 68 1014.8
20260905151742 63 252 3.0 18.0 0.00 0.00 0.00 67 1014.9
20260905151242 64 275 10.0 16.0 0.00 0.00 0.00 67 1014.8
20260905150742 64 296 7.0 17.0 0.00 0.00 0.00 67 1014.9
20260905150242 64 270 11.0 16.0 0.00 0.00 0.00 67 1014.8
20260905145742 64 292 9.0 19.0 0.00 0.00 0.00 66 1014.8
20260905145242 65 253 12.0 21.0 0.00 0.00 0.00 65 1014.9
20260905144742 66 254 4.0 21.0 0.00 0.00 0.00 62 1014.8
20260905144242 67 267 7.0 19.0 0.00 0.00 0.00 60 1014.5
20260905143742 67 281 9.0 13.0 0.00 0.00 0.00 58 1014.3
20260905143242 68 296 4.0 13.0 0.00 0.00 0.00 58 1014.1
20260905142742 68 276 8.0 17.0 0.00 0.00 0.00 57 1014.2
20260905142242 68 292 12.0 19.0 0.00 0.00 0.00 57 1014.1
20260905141742 69 261 7.0 15.0 0.00 0.00 0.00 56 1013.9
20260905141242 69 270 19.0 25.0 0.00 0.00 0.00 56 1013.9
20260905140742 69 296 6.0 14.0 0.00 0.00 0.00 56 1014.0
20260905140242 70 280 8.0 17.0 0.00 0.00 0.00 56 1013.9
20260905135742 69 283 5.0 16.0 0.00 0.00 0.00 56 1013.7
20260905135242 69 304 11.0 19.0 0.00 0.00 0.00 56 1013.9
20260905134742 70 238 4.0 14.0 0.00 0.00 0.00 55 1013.7
20260905134242 70 241 9.0 17.0 0.00 0.00 0.00 56 1013.9
20260905133742 70 295 14.0 19.0 0.00 0.00 0.00 56 1013.8
20260905133242 70 271 13.0 21.0 0.00 0.00 0.00 56 1013.7
20260905132742 70 219 9.0 19.0 0.00 0.00 0.00 56 1013.8
20260905132242 70 224 10.0 24.0 0.00 0.00 0.00 57 1013.7
20260905131742 70 268 10.0 16.0 0.00 0.00 0.00 58 1013.8
20260905131242 70 273 11.0 21.0 0.00 0.00 0.00 58 1013.9
20260905130742 70 287 11.0 27.0 0.00 0.00 0.00 58 1013.9
20260905130242 70 264 8.0 11.0 0.00 0.00 0.00 58 1013.7
20260905125742 70 295 13.0 17.0 0.00 0.00 0.00 58 1013.6
20260905125242 70 265 10.0 15.0 0.00 0.00 0.00 58 1013.9
20260905124742 70 267 12.0 16.0 0.00 0.00 0.00 58 1013.7
20260905124242 70 263 9.0 17.0 0.00 0.00 0.00 58 1013.8
20260905123742 70 306 4.0 17.0 0.00 0.00 0.00 58 1013.6
20260905123242 70 249 9.0 19.0 0.00 0.00 0.00 58 1013.8
20260905122742 70 278 8.0 19.0 0.00 0.00 0.00 57 1013.9
20260905122242 71 326 5.0 18.0 0.00 0.00 0.00 57 1013.8
20260905121742 71 246 13.0 17.0 0.00 0.00 0.00 57 1013.7
20260905121242 71 308 9.0 23.0 0.00 0.00 0.00 57 1013.7
20260905120742 71 271 6.0 11.0 0.00 0.00 0.00 58 1013.7
20260905120242 71 264 9.0 24.0 0.00 0.00 0.00 58 1013.8
20260905115742 70 268 9.0 16.0 0.00 0.00 0.00 59 1013.5
20260905115242 70 279 10.0 19.0 0.00 0.00 0.00 60 1013.8
20260905114742 70 262 11.0 15.0 0.00 0.00 0.00 61 1013.6
20260905114242 69 303 10.0 18.0 0.00 0.00 0.00 62 1013.6
20260905113742 69 278 11.0 15.0 0.00 0.00 0.00 63 1013.8
20260905113242 69 259 10.0 14.0 0.00 0.00 0.00 63 1013.7
20260905112742 68 269 12.0 16.0 0.00 0.00 0.00 64 1013.6
20260905112242 68 265 7.0 22.0 0.00 0.00 0.00 64 1013.7
20260905111742 67 258 10.0 19.0 0.00 0.00 0.00 63 1013.8
20260905111242 68 282 6.0 14.0 0.00 0.00 0.00 63 1013.6
20260905110741 68 289 9.0 15.0 0.00 0.00 0.00 63 1013.5
20260905110241 69 270 11.0 18.0 0.00 0.00 0.00 63 1013.6
20260905105742 69 290 12.0 19.0 0.00 0.00 0.00 64 1013.6
20260905105242 68 272 12.0 19.0 0.00 0.00 0.00 65 1013.6
20260905104742 67 265 7.0 23.0 0.00 0.00 0.00 65 1013.5
20260905104242 67 320 3.0 15.0 0.00 0.00 0.00 68 1013.4
20260905103742 66 272 13.0 19.0 0.00 0.00 0.00 68 1013.5
20260905103242 66 252 6.0 17.0 0.00 0.00 0.00 67 1013.5
20260905102742 66 283 6.0 15.0 0.00 0.00 0.00 66 1013.4
20260905102242 67 259 4.0 13.0 0.00 0.00 0.00 66 1013.4
20260905101742 67 290 8.0 18.0 0.00 0.00 0.00 65 1013.3
20260905101242 68 261 13.0 17.0 0.00 0.00 0.00 64 1013.0
20260905100742 68 254 6.0 18.0 0.00 0.00 0.00 64 1013.0
20260905100242 69 283 8.0 15.0 0.00 0.00 0.00 64 1013.2
20260905095742 69 274 14.0 16.0 0.00 0.00 0.00 63 1013.1
20260905095241 70 253 8.0 24.0 0.00 0.00 0.00 64 1013.0
20260905094742 70 290 10.0 16.0 0.00 0.00 0.00 65 1013.0
20260905094242 69 319 12.0 19.0 0.00 0.00 0.00 65 1012.9
20260905093742 69 283 14.0 23.0 0.00 0.00 0.00 67 1013.1
20260905093242 68 261 11.0 22.0 0.00 0.00 0.00 67 1012.9
20260905092742 68 286 15.0 18.0 0.00 0.00 0.00 68 1013.0
20260905092242 68 289 11.0 19.0 0.00 0.00 0.00 66 1013.1
20260905091742 69 270 10.0 23.0 0.00 0.00 0.00 66 1012.9
20260905091242 69 283 5.0 22.0 0.00 0.00 0.00 66 1012.8
20260905090742 69 289 16.0 21.0 0.00 0.00 0.00 67 1012.8
20260905090242 69 288 8.0 19.0 0.00 0.00 0.00 67 1012.6
20260905085742 69 291 6.0 30.0 0.00 0.00 0.00 68 1012.7
20260905085242 68 291 6.0 21.0 0.00 0.00 0.00 70 1012.7
20260905084742 67 253 7.0 15.0 0.00 0.00 0.00 71 1012.7
20260905084243 67 273 10.0 21.0 0.00 0.00 0.00 71 1012.7
20260905083742 67 267 15.0 21.0 0.00 0.00 0.00 71 1012.5
20260905083242 67 298 12.0 24.0 0.00 0.00 0.00 71 1012.6
20260905082742 67 249 11.0 27.0 0.00 0.00 0.00 73 1012.6
20260905082242 66 281 6.0 18.0 0.00 0.00 0.00 75 1012.6
20260905081742 66 291 10.0 18.0 0.00 0.00 0.00 75 1012.5
20260905081242 66 277 15.0 21.0 0.00 0.00 0.00 76 1012.7
20260905080742 65 255 10.0 21.0 0.00 0.00 0.00 77 1012.5
20260905080242 65 287 10.0 18.0 0.00 0.00 0.00 76 1012.4
20260905075742 65 260 12.0 25.0 0.00 0.00 0.00 76 1012.5
20260905075242 65 312 13.0 26.0 0.00 0.00 0.00 76 1012.5
20260905074742 65 321 4.0 14.0 0.00 0.00 0.00 77 1012.5
20260905074242 66 305 11.0 18.0 0.00 0.00 0.00 77 1012.3
20260905073742 65 296 21.0 25.0 0.00 0.00 0.00 78 1012.4
20260905073242 65 259 10.0 17.0 0.00 0.00 0.00 79 1012.1
20260905072742 65 112 12.0 22.0 0.00 0.00 0.00 81 1012.4
20260905072242 64 285 11.0 15.0 0.00 0.00 0.00 81 1012.2
20260905071742 64 322 10.0 17.0 0.00 0.00 0.00 83 1012.2
20260905071242 64 275 8.0 18.0 0.00 0.00 0.00 86 1012.1
20260905070742 63 279 4.0 16.0 0.00 0.00 0.00 86 1011.9
20260905070242 63 300 14.0 21.0 0.00 0.00 0.00 87 1011.8
20260905065742 64 293 9.0 13.0 0.00 0.00 0.00 87 1011.8
20260905065242 63 271 11.0 21.0 0.00 0.00 0.00 87 1011.8
20260905064742 63 296 11.0 23.0 0.00 0.00 0.00 87 1011.6
20260905064242 63 275 7.0 18.0 0.00 0.00 0.00 87 1011.5
20260905063742 63 271 11.0 22.0 0.00 0.00 0.00 87 1011.4
20260905063242 63 292 6.0 15.0 0.00 0.00 0.00 88 1011.3
20260905062742 63 304 11.0 18.0 0.00 0.00 0.00 88 1011.4
20260905062242 62 286 3.0 9.0 0.00 0.00 0.00 89 1011.3
20260905061742 62 261 4.0 14.0 0.00 0.00 0.00 89 1011.3
20260905061242 62 281 9.0 13.0 0.00 0.00 0.00 89 1011.3
20260905060742 62 272 9.0 10.0 0.00 0.00 0.00 89 1011.2
20260905060242 61 295 7.0 13.0 0.00 0.00 0.00 90 1011.2
20260905055742 61 257 8.0 14.0 0.00 0.00 0.00 90 1011.3
20260905055242 61 279 4.0 18.0 0.00 0.00 0.00 89 1011.1
20260905054742 61 261 8.0 18.0 0.00 0.00 0.00 90 1011.0
20260905054242 61 279 4.0 11.0 0.00 0.00 0.00 90 1011.0
20260905053742 61 259 7.0 10.0 0.00 0.00 0.00 90 1011.0
20260905053242 60 255 5.0 11.0 0.00 0.00 0.00 90 1011.0
20260905052742 60 271 6.0 13.0 0.00 0.00 0.00 90 1010.8
20260905052242 60 296 7.0 11.0 0.00 0.00 0.00 89 1010.9
20260905051742 60 278 11.0 13.0 0.00 0.00 0.00 89 1010.9
20260905051242 60 292 4.0 16.0 0.00 0.00 0.00 89 1010.9
20260905050742 60 269 3.0 13.0 0.00 0.00 0.00 89 1010.8
20260905050242 60 290 7.0 13.0 0.00 0.00 0.00 89 1010.7
20260905045742 60 269 7.0 10.0 0.00 0.00 0.00 89 1010.6
20260905045242 60 287 9.0 15.0 0.00 0.00 0.00 89 1010.5
20260905044742 60 279 7.0 14.0 0.00 0.00 0.00 89 1010.4
20260905044242 60 273 11.0 15.0 0.00 0.00 0.00 89 1010.4
20260905043742 60 282 8.0 13.0 0.00 0.00 0.00 89 1010.1
20260905043242 60 229 9.0 13.0 0.00 0.00 0.00 89 1010.4
20260905042742 60 259 5.0 13.0 0.00 0.00 0.00 89 1010.4
20260905042242 60 257 8.0 14.0 0.00 0.00 0.00 89 1010.2
20260905041742 61 281 6.0 16.0 0.00 0.00 0.00 89 1010.0
20260905041242 61 278 12.0 16.0 0.00 0.00 0.00 89 1009.9
20260905040742 61 318 11.0 15.0 0.00 0.00 0.00 89 1009.7
20260905040242 62 276 13.0 23.0 0.00 0.00 0.00 89 1009.6
20260905035742 62 262 10.0 30.0 0.00 0.00 0.00 90 1009.6
20260905035242 62 268 12.0 18.0 0.00 0.00 0.00 91 1009.4
20260905034742 62 273 12.0 18.0 0.00 0.00 0.00 91 1009.2
20260905034242 62 277 10.0 16.0 0.00 0.00 0.00 91 1009.2
20260905033742 62 271 9.0 13.0 0.00 0.00 0.00 92 1008.8
20260905033242 62 248 5.0 18.0 0.00 0.00 0.00 92 1009.0
20260905032742 62 290 14.0 18.0 0.00 0.00 0.00 92 1008.7
20260905032242 62 274 7.0 16.0 0.00 0.00 0.00 92 1008.6
20260905031742 62 268 12.0 16.0 0.00 0.00 0.00 92 1008.8
20260905031242 62 253 8.0 23.0 0.00 0.00 0.00 92 1008.4
20260905030742 62 278 11.0 19.0 0.00 0.00 0.00 92 1008.3
20260905030242 62 294 10.0 16.0 0.00 0.00 0.00 92 1008.3
20260905025742 62 248 9.0 21.0 0.00 0.00 0.00 92 1008.6
20260905025242 62 263 9.0 17.0 0.00 0.00 0.00 92 1008.5
20260905024742 62 250 9.0 18.0 0.00 0.00 0.00 92 1008.3
20260905024242 62 285 6.0 19.0 0.00 0.00 0.00 93 1008.6
20260905023742 62 286 6.0 11.0 0.00 0.00 0.00 92 1008.2
20260905023242 62 269 9.0 14.0 0.00 0.00 0.00 93 1008.2
20260905022742 63 260 12.0 15.0 0.00 0.00 0.00 92 1008.4
20260905022242 63 279 7.0 11.0 0.00 0.00 0.00 92 1008.3
20260905021742 63 261 10.0 14.0 0.00 0.00 0.00 92 1008.5
20260905021242 63 260 6.0 15.0 0.00 0.00 0.00 92 1008.1
20260905020742 63 276 10.0 19.0 0.00 0.00 0.00 92 1008.1
20260905020242 63 297 5.0 10.0 0.00 0.00 0.00 92 1008.0
20260905015742 63 285 7.0 13.0 0.00 0.00 0.00 92 1008.1
20260905015242 63 296 9.0 19.0 0.00 0.00 0.00 92 1008.0
20260905014742 63 283 8.0 14.0 0.00 0.00 0.00 92 1008.0
20260905014242 63 290 6.0 14.0 0.00 0.00 0.00 92 1007.7
20260905013742 63 259 7.0 15.0 0.00 0.00 0.00 92 1007.7
20260905013242 63 259 10.0 18.0 0.00 0.00 0.00 92 1007.9
20260905012742 63 281 8.0 14.0 0.00 0.00 0.00 92 1007.7
20260905012242 63 216 7.0 18.0 0.00 0.00 0.00 92 1007.8
20260905011742 63 275 9.0 16.0 0.00 0.00 0.00 92 1007.7
20260905011242 63 292 11.0 16.0 0.00 0.00 0.00 92 1007.8
20260905010742 63 229 15.0 19.0 0.00 0.00 0.00 92 1007.7
20260905010242 64 279 4.0 14.0 0.00 0.00 0.00 92 1007.6
20260905005742 64 273 6.0 14.0 0.00 0.00 0.00 93 1007.5
20260905005242 64 282 8.0 15.0 0.00 0.00 0.00 93 1007.3
20260905004742 64 266 3.0 15.0 0.00 0.00 0.00 93 1007.2
20260905004242 64 284 8.0 21.0 0.00 0.00 0.00 93 1007.1
20260905003742 64 280 8.0 17.0 0.00 0.00 0.00 93 1007.2
20260905003242 64 291 11.0 21.0 0.00 0.00 0.00 94 1007.0
20260905002742 64 149 6.0 18.0 0.00 0.00 0.00 94 1006.9
20260905002242 64 300 6.0 21.0 0.00 0.00 0.00 94 1006.8
20260905001742 64 263 5.0 18.0 0.00 0.00 0.00 95 1006.7
20260905001242 64 310 7.0 13.0 0.00 0.00 0.00 95 1006.8
20260905000742 64 290 4.0 11.0 0.00 0.00 0.00 95 1006.8
20260905000242 64 197 9.0 19.0 0.00 0.00 0.00 95 1006.8
20260904235742 64 174 6.0 9.0 0.00 0.00 0.00 95 1006.8
20260904235242 64 276 9.0 16.0 0.00 0.00 0.00 95 1006.8
20260904234742 64 296 5.0 10.0 0.00 0.00 0.00 95 1006.7
20260904234242 64 293 7.0 11.0 0.00 0.00 0.00 95 1006.7
20260904233742 64 312 3.0 15.0 0.00 0.00 0.00 95 1006.8
20260904233242 64 273 4.0 14.0 0.00 0.00 0.00 95 1006.8
20260904232742 64 290 3.0 6.0 0.00 0.00 0.00 95 1006.8
20260904232242 64 97 3.0 10.0 0.00 0.00 0.00 95 1006.5
20260904231742 64 292 5.0 10.0 0.00 0.00 0.00 95 1006.6
20260904231242 64 285 6.0 10.0 0.00 0.00 0.00 95 1006.7
20260904230742 65 247 7.0 16.0 0.00 0.00 0.00 95 1006.4
20260904230242 65 225 6.0 13.0 0.00 0.00 0.00 95 1006.8
20260904225742 65 252 8.0 11.0 0.00 0.00 0.00 95 1006.7
20260904225242 64 294 7.0 13.0 0.00 0.00 0.00 95 1006.8
20260904224742 64 300 5.0 8.0 0.00 0.00 0.00 95 1006.7
20260904224242 64 244 1.0 7.0 0.00 0.00 0.00 95 1006.5
20260904223742 64 255 6.0 7.0 0.00 0.00 0.00 95 1006.5
20260904223242 64 304 0.0 3.0 0.00 0.00 0.00 95 1006.2
20260904222742 64 218 0.0 6.0 0.00 0.00 0.00 95 1006.0
20260904222242 64 291 2.0 4.0 0.00 0.00 0.00 95 1005.9
20260904221742 64 252 2.0 3.0 0.00 0.00 0.00 95 1006.2
20260904221242 64 278 2.0 6.0 0.00 0.00 0.00 94 1006.4
20260904220741 64 257 1.0 4.0 0.00 0.00 0.00 94 1005.9
20260904220242 64 266 3.0 10.0 0.00 0.00 0.00 94 1006.3
20260904215742 64 205 1.0 8.0 0.00 0.00 0.00 94 1006.2